Tracking 19176 objects as of 28-May-2018
HD Live streaming from Space Station
objects crossing your sky now

MOLNIYA 2-10

Track MOLNIYA 2-10 now!
MOLNIYA 2-10 is classified as:


NORAD ID: 7376
Int'l Code: 1974-056A
Perigee: 1,184.3 km
Apogee: 39,085.4 km
Inclination: 63.3 °
Period: 715.8 minutes
Semi major axis: 26505 km
RCS: 14.6103 m2 (large)
Launch date: July 23, 1974
Source: Commonwealth of Independent States (former USSR) (CIS)
Launch site: PLESETSK MISSILE AND SPACE COMPLEX (PKMTR)
aabbcc
Your satellite tracking list
Your tracking list is empty




NASA's NSSDC Master Catalog

Two Line Element Set (TLE):
1 07376U 74056A   18147.77212631 -.00001243  00000-0  17174-1 0  9997
2 07376  63.2751 253.8407 7149581 294.4955   9.3342  2.01182540320606
Source of the keplerian elements: AFSPC